Location: Most
(50.5133°N, 13.6207°E)
Time: 08:31:10
(UTC+01:00)

Oscar 11 - Pass Details

Date: 09 December 2021
Orbit: 611 x 625 km, 97.6° (Epoch: 26 January)

Event Time Altitude Azimuth Distance (km) Brightness Sun altitude
Rises 05:42:23 0° 13° (NNE) 2,918 10.5 -19.8°
Reaches altitude 10° 05:44:35 10° 13° (NNE) 2,004 9.7 -19.5°
Maximum altitude 05:48:57 88° 294° (WNW) 628 7.0 -18.8°
Drops below altitude 10° 05:53:17 10° 196° (SSW) 1,979 9.6 -18.1°
Sets 05:55:27 0° 196° (SSW) 2,878 10.5 -17.8°
